Theta_e
318 311 308 306 296 291 287 289 291 293 294 298 302 299 298 302 298 292 314 324 338 343 347 347 349 352 352 352 352 351 351 350 347 346 345 342 341 340 338 338 337 336 336 335 338 340 340 341 340
316 312 308 298 289 285 287 290 293 294 299 301 300 299 303 302 310 314 317 337 344 345 347 347 348 352 352 352 351 350 351 350 347 345 344 343 341 339 337 337 336 334 333 334 335 336 337 339 336
311 308 301 292 287 286 287 291 292 297 299 295 298 303 304 305 310 312 319 341 344 344 346 346 347 351 352 351 351 351 349 349 348 346 344 342 340 338 336 335 333 331 330 329 330 331 333 334 334
306 304 297 290 287 288 291 293 293 296 294 299 301 300 308 312 312 316 326 341 341 343 345 343 347 351 351 350 350 350 350 349 348 346 344 342 340 338 336 335 332 329 326 326 326 326 329 330 330
301 297 290 287 289 291 290 294 294 295 294 295 297 299 304 311 317 324 334 340 338 341 343 343 345 347 347 348 348 349 349 348 348 346 343 341 339 338 337 336 334 332 325 323 323 323 325 325 326
298 294 288 285 286 289 292 294 294 293 295 296 299 299 304 308 318 318 327 327 333 340 342 343 338 341 344 347 347 347 347 347 347 346 342 341 339 338 337 335 334 333 326 321 320 320 322 322 322
295 291 287 286 287 289 293 295 293 294 295 295 301 297 301 306 315 314 314 315 320 334 338 339 340 338 337 340 341 343 345 344 345 344 343 341 340 339 336 335 334 332 328 324 320 319 319 319 319
294 291 285 287 288 289 294 294 294 295 293 297 297 295 300 304 313 309 308 308 309 314 317 325 337 337 338 339 334 336 339 340 341 340 337 335 335 336 335 332 334 332 329 326 321 320 318 318 317
293 287 285 287 289 291 294 293 295 295 296 294 296 297 298 308 308 306 305 305 307 309 310 311 323 337 339 340 335 332 333 335 335 334 331 329 334 333 332 329 333 332 330 328 324 320 317 313 314
292 286 289 291 291 292 294 293 296 294 293 292 294 297 299 306 304 306 306 305 303 304 310 309 312 317 325 339 339 339 337 338 337 336 332 332 332 331 330 325 327 328 328 328 324 320 315 308 302
290 288 291 293 295 295 295 293 294 293 291 294 295 297 298 301 303 303 301 302 302 303 307 309 311 313 314 328 336 339 337 337 336 334 332 331 329 328 324 325 322 318 317 316 315 311 309 306 305
291 293 292 296 296 296 294 295 293 293 295 296 297 298 297 299 300 299 298 299 301 304 305 308 309 311 311 313 332 333 332 332 334 333 331 329 327 326 324 323 321 317 315 312 312 311 311 309 308
291 293 295 296 296 294 296 295 294 294 294 295 297 297 297 297 298 297 298 299 301 303 303 306 307 310 312 311 330 329 328 328 330 332 331 329 326 325 325 322 320 315 313 311 309 308 308 309 308
294 294 294 296 296 295 295 293 294 294 294 294 296 296 295 296 296 295 297 298 301 303 303 306 310 311 312 320 325 324 323 323 324 325 328 328 327 324 320 317 315 313 313 309 308 306 305 306 305
295 291 293 294 295 295 295 292 293 294 294 294 294 294 294 295 295 296 297 298 301 302 303 307 310 315 317 320 319 318 318 318 317 317 319 320 320 318 315 313 312 310 311 308 307 305 303 303 304
290 290 287 291 294 294 294 289 294 294 293 293 292 291 293 294 295 295 296 297 300 300 303 306 313 313 315 315 314 314 314 314 313 313 314 314 314 313 311 310 308 308 306 303 299 297 297 298 300
288 284 286 290 294 292 291 289 292 292 292 292 291 291 292 292 293 293 294 298 299 300 303 303 309 310 311 309 307 306 307 308 308 310 309 309 309 308 307 305 303 303 300 295 293 291 293 295 296
284 284 286 286 290 290 288 289 292 291 291 292 290 290 290 292 294 293 294 297 298 299 302 302 307 307 305 304 301 301 300 300 302 303 304 304 302 301 299 297 297 296 293 290 289 289 289 290 293
288 286 286 289 292 290 289 290 293 292 290 290 290 291 291 292 294 292 295 296 297 298 300 300 305 304 303 301 301 300 297 296 296 297 297 297 295 294 292 292 290 289 289 288 287 286 289 286 286
288 286 286 289 291 290 289 289 291 291 291 293 293 293 292 293 290 292 294 295 296 298 299 300 305 303 303 304 297 294 295 292 292 293 292 292 290 289 289 288 286 286 285 284 284 284 283 282 283
288 286 285 287 289 288 286 286 288 291 293 292 294 296 295 294 292 291 293 294 296 297 299 300 304 304 302 296 293 291 291 291 290 290 289 289 288 287 287 286 285 284 284 282 282 282 282 280 282
286 290 290 288 286 282 286 282 286 289 290 291 294 294 295 294 292 292 293 294 296 298 299 301 303 302 295 295 294 294 294 292 289 288 287 286 285 285 285 284 284 283 283 282 281 282 281 281 279
289 291 289 287 284 282 281 281 285 287 288 291 294 295 295 293 292 291 293 295 297 298 300 303 301 295 295 294 294 294 293 288 287 287 286 283 283 283 283 283 282 282 282 281 281 281 281 281 280
292 289 287 285 283 278 285 284 284 286 291 291 295 295 293 291 290 291 293 295 296 298 303 303 295 294 294 293 293 291 287 286 285 285 284 282 282 282 282 282 282 282 282 282 281 281 280 280 280
290 288 280 278 276 279 282 281 288 290 291 293 294 295 291 289 288 289 291 294 295 297 299 298 295 292 293 293 291 289 288 287 286 284 282 281 281 281 280 281 281 281 281 281 281 280 280 280 280
288 287 281 273 275 278 282 280 286 290 292 292 292 292 289 287 288 289 292 294 294 296 298 297 293 292 292 291 289 289 288 287 286 284 283 282 282 281 280 280 281 281 281 280 280 280 279 279 278
286 284 289 283 271 274 281 284 289 290 290 291 291 288 286 287 287 289 291 293 294 294 295 294 293 292 291 290 289 287 287 286 284 282 281 281 281 281 280 281 281 280 280 280 279 279 278 278 277
288 290 283 281 273 270 279 280 284 288 289 291 291 289 288 287 286 287 289 291 291 292 291 291 292 290 290 289 288 287 286 285 282 281 281 280 281 281 281 280 280 280 279 279 278 277 277 277 276
286 285 284 285 281 276 273 283 288 290 292 292 291 292 289 287 286 286 288 288 289 288 287 287 289 290 288 288 287 286 285 282 282 281 281 281 281 280 280 280 279 279 278 278 277 277 276 276 276
287 286 287 282 279 281 280 285 289 290 290 291 292 291 287 287 286 285 286 286 285 285 285 286 287 288 288 287 286 285 283 281 280 280 280 280 280 279 279 279 279 278 278 277 277 276 276 276 276
Wind_Speed
6 5 3 6 6 7 1 3 1 1 3 5 3 5 8 4 2 3 4 3 6 8 6 7 12 12 13 12 11 11 13 16 16 15 15 15 16 15 16 15 15 15 15 14 14 15 16 17 18
3 2 6 3 7 4 5 4 5 3 7 7 6 3 6 3 0 2 2 3 9 8 7 6 11 12 12 12 11 11 13 15 16 15 14 16 14 16 16 16 15 15 15 14 15 15 16 17 17
1 4 5 6 4 4 5 4 5 5 7 2 4 5 3 1 1 2 2 8 7 7 7 7 10 11 12 11 11 10 12 13 15 14 15 15 15 16 16 15 15 15 14 15 15 15 16 16 18
3 5 6 6 3 4 5 6 4 6 1 4 4 6 2 1 2 1 5 8 8 7 7 8 11 11 12 12 12 12 13 13 13 14 15 15 14 15 14 15 15 14 14 15 15 15 16 16 17
5 4 5 4 1 2 2 4 8 6 4 2 1 4 1 2 2 5 6 6 8 6 7 8 10 10 9 10 12 11 11 13 12 15 15 14 14 14 14 14 13 13 14 14 15 15 15 15 16
5 4 6 2 2 2 2 3 5 3 2 4 5 5 4 3 1 3 5 5 2 8 6 6 9 9 9 8 10 10 10 11 12 14 15 14 13 13 13 13 13 13 13 14 14 14 15 15 16
7 5 4 5 5 1 4 6 6 6 5 3 10 6 2 1 2 5 6 6 6 6 6 4 4 8 9 8 8 9 10 10 12 14 14 12 12 13 12 11 14 13 13 13 13 14 14 14 15
6 6 4 3 6 5 5 3 5 6 2 3 1 6 5 6 6 6 7 7 7 7 6 4 4 4 6 6 8 8 9 9 11 12 12 11 10 10 8 6 9 13 13 13 13 13 14 16 16
3 6 3 7 7 4 4 4 3 2 7 2 2 4 4 10 8 5 4 4 4 5 6 4 3 3 3 5 5 10 10 10 10 11 11 9 5 5 7 7 8 10 11 11 12 14 14 14 16
6 4 8 5 4 4 5 3 7 5 4 1 1 1 4 8 6 8 6 6 4 3 3 2 3 3 3 2 6 5 7 7 7 7 8 4 5 4 5 7 10 9 9 11 13 14 14 10 5
3 5 4 3 3 3 4 2 3 7 4 7 10 10 7 5 7 8 6 6 7 3 1 1 1 1 2 2 1 1 2 4 4 7 6 5 4 4 3 3 3 3 6 4 6 6 5 7 5
3 1 3 2 2 4 4 3 4 7 6 3 8 9 6 9 10 9 8 7 6 5 3 1 2 3 2 1 2 2 2 3 4 6 8 6 3 3 3 3 3 4 3 5 5 4 5 7 7
2 2 1 2 2 1 2 5 6 7 2 3 7 8 9 8 7 5 5 5 5 5 4 3 3 3 4 2 3 3 3 2 3 6 7 7 5 5 5 4 4 4 4 4 4 4 5 6 7
1 1 2 2 2 2 4 3 3 4 5 5 8 9 8 9 8 4 6 7 6 5 5 2 3 4 3 3 3 4 3 4 4 3 5 6 5 5 6 5 5 4 4 4 4 4 4 5 5
2 3 6 4 4 4 4 7 11 4 6 8 9 8 8 9 8 10 8 8 7 5 5 4 3 3 5 4 5 4 3 4 5 4 7 8 8 7 7 6 5 4 4 6 4 5 5 5 6
3 5 2 3 5 1 6 11 6 8 10 12 10 8 9 10 10 8 8 7 7 5 5 4 3 3 6 5 5 4 4 5 5 5 6 9 8 9 7 6 5 4 4 3 5 4 6 6 6
6 4 5 8 7 3 5 8 3 3 7 9 9 10 10 8 10 9 8 8 8 7 7 6 4 5 5 7 6 6 6 5 5 4 6 8 7 8 8 6 5 5 4 4 4 5 4 5 6
6 4 4 5 3 3 4 13 10 4 9 12 9 10 11 12 19 9 10 8 7 7 6 6 5 7 7 6 6 5 5 5 5 4 6 8 7 9 9 6 6 4 6 5 5 6 6 5 5
5 4 6 5 4 4 9 11 15 8 7 10 12 13 14 18 10 8 8 8 7 7 7 7 8 8 8 6 5 4 4 4 4 4 7 8 7 8 9 6 6 5 6 5 4 4 8 7 4
1 3 6 6 4 7 9 13 11 6 10 15 17 17 17 15 8 10 10 9 9 9 9 9 10 11 8 6 3 4 4 4 4 4 6 7 7 7 7 7 5 5 6 6 5 4 4 4 4
6 7 5 8 4 4 4 8 9 9 12 7 15 17 15 20 18 14 14 14 10 11 11 11 12 12 9 9 8 7 7 5 4 4 5 5 6 7 7 7 6 6 5 6 5 5 7 5 4
8 9 7 4 1 5 2 12 6 6 13 9 17 15 21 16 9 13 17 15 14 12 10 11 12 12 10 11 9 15 9 8 3 4 5 5 6 6 6 7 7 7 5 7 5 3 5 6 5
7 5 6 2 4 2 3 5 6 2 8 14 17 18 16 12 16 19 21 18 14 12 13 12 11 11 12 11 11 9 9 6 7 7 10 6 5 6 6 7 7 8 6 5 6 6 8 4 4
7 5 6 4 2 6 13 12 6 8 14 6 12 13 11 11 10 9 9 11 12 11 13 13 13 11 13 11 11 10 14 14 11 10 9 6 4 4 5 6 7 7 7 7 6 7 9 7 7
3 6 3 5 1 11 3 6 15 7 7 11 12 13 4 6 9 9 13 14 14 16 14 13 14 12 13 13 12 12 13 16 18 17 12 11 8 5 6 7 8 7 7 7 7 8 7 6 7
9 10 9 9 5 7 1 11 8 10 9 8 10 7 5 7 8 12 14 14 14 16 16 16 15 14 14 13 12 12 14 10 10 12 12 9 8 8 7 7 8 9 8 7 6 7 7 8 7
7 9 4 3 2 3 7 8 9 9 10 10 12 3 5 8 9 10 11 13 13 15 16 16 15 13 14 14 12 12 12 12 12 10 8 7 7 7 8 9 9 7 7 7 7 7 8 8 5
6 8 4 1 3 6 7 8 10 6 10 11 13 6 8 7 7 7 9 10 10 11 10 9 12 14 15 13 13 12 13 11 9 9 10 10 9 10 10 9 9 8 7 7 8 7 6 8 5
4 5 2 5 6 6 4 11 8 10 11 9 8 9 6 8 8 8 8 7 8 9 9 10 10 13 13 13 12 13 11 10 10 10 9 10 10 11 11 11 11 10 9 7 8 6 7 8 7
1 6 7 6 5 5 3 22 5 3 4 6 7 5 2 6 8 8 8 9 9 10 10 11 11 13 13 12 12 13 12 11 11 10 10 10 11 10 11 10 10 9 9 8 9 9 7 8 7
Wind_Direction
342 353 62 40 56 63 337 257 255 150 57 340 65 125 137 64 125 205 275 206 159 150 148 140 134 128 126 126 123 121 118 114 108 105 99 86 84 80 77 77 75 72 68 69 68 64 63 65 59
340 61 44 76 85 75 273 263 183 184 150 166 80 71 50 79 135 150 125 170 154 142 140 138 135 135 132 130 129 129 125 122 116 112 101 93 89 80 77 76 76 69 68 66 64 63 63 63 60
124 42 84 91 107 156 186 223 204 149 151 136 100 59 112 102 254 198 233 147 136 141 140 150 146 143 139 135 130 131 131 124 121 122 110 102 93 85 80 81 76 71 68 68 68 67 67 68 68
76 12 37 81 140 215 196 186 198 128 284 47 123 70 8 259 311 286 156 154 148 152 145 156 154 153 151 144 140 141 137 134 133 128 111 106 103 97 93 83 80 79 78 76 73 72 74 74 74
38 57 56 75 314 255 240 177 166 160 150 117 89 169 100 24 7 30 144 161 154 156 148 160 160 160 157 155 146 147 145 141 137 129 120 117 110 103 92 85 82 77 76 76 74 73 74 74 73
45 91 69 168 240 311 299 176 164 123 128 154 85 114 191 342 42 8 98 79 60 155 157 166 166 165 164 159 149 145 147 146 137 131 129 125 119 110 102 96 87 82 81 79 78 78 77 77 76
107 79 168 155 178 173 215 147 166 150 136 213 151 125 259 277 128 86 84 75 55 80 98 100 176 170 155 157 158 155 156 153 140 141 136 133 134 128 122 115 107 96 90 86 83 82 80 77 77
101 91 112 198 184 220 185 149 137 138 170 113 151 177 202 205 157 104 75 73 67 62 68 66 111 136 150 168 170 163 156 153 147 142 139 143 138 135 129 102 100 101 97 89 79 72 70 67 68
115 67 164 190 157 232 169 140 140 73 112 48 312 159 268 133 133 106 91 61 56 51 61 28 71 109 203 164 162 168 158 153 151 144 146 140 138 135 126 105 81 93 92 90 88 76 68 62 60
81 100 207 195 195 215 184 163 167 145 130 259 354 42 84 132 157 152 156 154 139 128 94 37 46 38 329 164 165 175 169 167 161 159 144 127 126 111 105 106 96 77 67 82 82 78 68 58 50
155 162 199 219 200 201 177 211 192 128 232 204 193 180 173 167 172 174 179 179 179 162 143 80 20 334 267 266 105 195 130 145 148 143 139 131 118 120 106 98 89 79 66 55 52 49 54 56 56
97 170 177 204 226 149 178 138 206 190 217 301 199 161 162 174 187 186 183 184 173 182 194 238 311 292 256 268 157 121 119 132 148 152 143 136 130 124 114 105 100 87 63 65 56 49 59 58 50
117 189 198 197 211 244 121 229 218 242 228 44 143 155 177 183 192 194 188 187 177 197 210 252 298 278 278 201 131 117 106 109 110 151 150 145 145 138 117 94 76 72 74 79 73 64 61 64 61
147 311 278 246 235 261 198 250 129 257 142 134 159 186 190 189 189 178 194 198 196 205 217 232 266 248 230 212 127 112 105 92 83 83 129 135 132 119 108 100 94 80 84 79 82 89 79 69 64
81 336 334 235 201 231 162 285 234 195 158 182 203 207 208 214 195 204 199 198 189 205 206 206 207 189 180 122 100 95 76 88 80 78 80 100 108 111 112 109 97 90 91 97 80 77 71 74 68
64 45 348 293 140 261 139 262 267 173 163 211 213 218 222 224 218 213 202 198 196 185 194 187 168 127 162 117 102 94 84 89 85 82 88 89 102 107 112 100 91 88 83 87 86 74 72 69 71
5 232 210 312 201 138 173 269 271 142 196 227 216 220 226 234 235 220 203 195 189 191 179 176 169 138 124 98 92 82 80 86 87 92 94 95 98 103 103 100 94 87 86 67 80 60 90 87 75
202 220 235 230 226 176 215 265 267 198 202 232 235 234 229 228 229 203 199 190 186 187 179 170 152 136 118 105 101 87 79 68 70 85 98 106 100 99 103 100 94 90 89 71 68 92 61 76 91
151 188 232 240 238 178 228 240 255 226 218 232 236 232 230 231 224 191 186 182 183 186 172 173 157 151 142 138 133 120 109 92 74 70 90 89 98 99 102 103 101 85 96 103 95 89 85 45 25
203 229 252 285 239 189 262 258 246 218 228 218 227 232 228 232 199 188 184 185 187 183 181 170 172 162 162 160 113 114 125 77 78 76 79 82 89 91 100 109 105 103 107 92 76 74 105 76 12
227 212 231 230 325 239 300 264 239 246 238 234 239 238 231 223 211 190 188 193 185 189 182 175 175 170 160 130 114 98 94 95 91 82 83 68 84 89 103 104 110 97 99 97 95 118 117 127 40
243 207 207 238 64 251 50 286 243 236 250 228 244 229 237 224 199 190 189 190 191 190 175 176 176 167 149 149 147 159 152 152 133 116 116 97 82 93 101 105 104 105 100 93 103 97 106 112 118
224 140 174 192 198 351 208 273 250 226 263 255 251 241 238 216 195 194 194 192 183 173 176 174 168 162 158 158 162 160 135 106 119 123 118 104 91 95 103 112 114 105 96 104 107 89 80 69 103
138 84 54 55 88 261 209 208 207 198 221 246 251 253 232 208 200 190 182 168 171 170 177 171 163 166 162 158 161 153 142 141 139 143 132 136 128 121 112 114 115 111 114 106 97 93 89 94 89
137 100 315 328 353 247 7 225 253 285 237 219 246 259 262 157 162 166 171 176 170 174 173 167 167 168 164 162 161 155 155 160 158 155 150 152 151 148 151 138 127 118 116 112 113 102 101 97 96
196 163 166 211 210 278 232 241 253 231 263 247 256 279 136 165 179 187 186 181 176 175 174 173 172 167 164 162 161 160 159 164 168 158 153 156 156 152 156 136 125 121 121 119 110 112 108 107 106
197 210 174 54 92 354 233 281 283 260 279 267 253 159 182 212 194 188 179 182 175 176 176 175 172 170 166 166 161 163 163 163 167 153 152 149 142 145 143 134 129 127 127 135 135 122 118 107 105
159 161 90 357 209 257 269 270 233 257 249 256 263 237 226 212 190 176 178 175 175 177 170 166 174 172 165 164 168 168 169 165 150 148 149 151 149 149 143 134 136 139 145 147 123 119 124 118 120
139 186 140 136 160 189 303 261 213 219 216 229 260 250 228 194 194 182 176 172 174 167 169 162 166 170 168 168 166 163 164 152 148 154 152 156 152 154 151 152 152 154 153 142 127 125 134 121 124
53 204 163 158 210 239 166 266 181 207 248 195 254 322 228 182 181 173 173 166 170 176 173 176 172 173 171 165 161 164 156 151 155 159 161 162 162 161 155 154 156 157 156 151 144 145 140 140 146